Location: Clatteringshaws Loch
(55.0508°N, 4.2860°W)
Time: 19:15:21
(UTC+00:00)

SR - Visible Passes

Search period start: 31 October 2014 00:00
Search period end: 10 November 2014 00:00
Orbit: 576 x 888 km, 66.7° (Epoch: 31 October)

Date Brightness Start Highest point End Pass type
(mag) Time Alt. Az. Time Alt. Az. Time Alt. Az.
31 Oct ? 18:55:01 10° NW 19:00:24 41° NNE 19:01:36 36° ENE visible
31 Oct ? 20:37:27 10° NW 20:41:06 40° WNW 20:41:06 40° WNW visible
01 Nov ? 18:06:30 10° NW 18:11:38 33° NNE 18:14:35 20° ENE visible
01 Nov ? 19:48:59 10° NW 19:54:05 72° NNW 19:54:05 72° NNW visible
01 Nov ? 21:31:55 10° WNW 21:33:35 17° WNW 21:33:35 17° WNW visible
02 Nov ? 17:17:53 10° NW 17:22:47 28° NNE 17:27:24 10° ENE visible
02 Nov ? 19:00:33 10° NW 19:06:07 57° NE 19:07:07 49° E visible
02 Nov ? 20:43:07 10° NW 20:46:37 32° W 20:46:37 32° W visible
03 Nov ? 18:12:06 10° NW 18:17:28 41° NNE 18:20:12 24° E visible
03 Nov ? 19:54:32 10° NW 19:59:42 63° WSW 19:59:42 63° WSW visible
03 Nov ? 21:38:27 10° WNW 21:39:13 12° W 21:39:13 12° W visible
04 Nov ? 17:23:35 10° NW 17:28:42 33° NNE 17:33:20 11° E visible
04 Nov ? 19:06:04 10° NW 19:11:40 83° NE 19:12:51 55° SE visible
04 Nov ? 20:49:01 10° WNW 20:52:22 23° W 20:52:22 23° W visible
05 Nov ? 18:17:38 10° NW 18:23:10 57° NE 18:26:04 25° ESE visible
05 Nov ? 20:00:12 10° NW 20:05:14 39° WSW 20:05:35 38° SW visible
06 Nov ? 17:29:11 10° NW 17:34:31 41° NNE 17:39:22 10° E visible
06 Nov ? 19:11:37 10° NW 19:17:03 64° SW 19:18:54 38° S visible
06 Nov ? 20:55:35 10° WNW 20:58:06 14° WSW 20:58:25 14° WSW visible
07 Nov ? 18:23:08 10° NW 18:28:42 84° NE 18:32:20 20° SE visible
07 Nov ? 20:06:06 10° WNW 20:10:15 23° WSW 20:11:52 20° SW visible
08 Nov ? 17:34:42 10° NW 17:40:12 57° NE 17:45:13 10° ESE visible
08 Nov ? 19:17:16 10° NW 19:22:15 38° WSW 19:25:27 18° S visible
09 Nov ? 18:28:40 10° NW 18:34:04 63° SW 18:38:58 10° SSE visible
09 Nov ? 20:12:42 10° WNW 20:15:07 13° WSW 20:17:26 10° SW visible
